{"data":{"norad_id":54056,"epoch":"2026-05-25T00:32:44.405088Z","epoch_age_seconds":66275,"freshness":"FRESH","line1":"1 54056U 22136F   26145.02273617  .00000257  00000+0  34236-4 0  9995","line2":"2 54056  53.2142   1.0345 0001334  85.3859 274.7285 15.08837289198375","mean_motion":15.08837289,"eccentricity":0.0001334,"inclination_deg":53.2142,"raan_deg":1.0345,"arg_perigee_deg":85.3859,"mean_anomaly_deg":274.7285,"bstar":3.4236e-5,"rev_number":19837,"period_min":95.437726154977,"perigee_km":538.82882906966,"apogee_km":540.67452176826,"semimajor_km":6917.888675419,"source":"CELESTRAK","updated_at":"2026-05-25T13:38:17.646601Z"}}